Flag for Germany Weather past 2 weeks in Achim, Lower Saxony, Germany

Now
73 °F

Scattered clouds.


Feels Like: 76 °F
Forecast: 57 / 72 °F
Wind: 7 mph from East

Location: Bremen Airport

Current Time: Sep 19, 2014 at 2:49:07 PM

Latest Report: Sep 19, 2014 at 2:20 PM


Visibility: N/A

Pressure: 29.86 "Hg

Humidity: 61%

Dew point: 59 °F

Location of AchimLocation

Historic Weather in Achim — Graph

°F

Achim temperature yesterday

Maximum temperature yesterday: 77 °F (at 3:50 PM)
Minimum temperature yesterday: 55 °F (at 4:20 AM)
Average temperature yesterday: 65 °F

Past Weeks' High & Low Weather Summary

 TemperatureHumidityPressure
High79 °F (Sep 5, 2:50 PM)100% (Sep 6, 3:50 AM)30.24 "Hg (Sep 6, 3:50 AM)
Low50 °F (Sep 9, 7:20 AM)46% (Sep 8, 3:50 PM)29.86 "Hg (Sep 6, 3:50 PM)
Average63 °F80%30.04 "Hg
* Reported Sep 4 1:20 PM — Sep 19 1:20 PM, Achim, Weather by CustomWeather, © 2014

Note: Actual official high and low records may vary slightly from our data, if they occured in-between our weather recording intervals... More about our weather records

Advertising

Achim weather history for previous 24 hours

 ConditionsComfort  
Time TempWeatherWind HumidityBarometerVisibility
1:20 PM
Sep 19
72 °FPassing clouds.7 mph65%29.89 "HgN/A
12:50 PM72 °FPassing clouds.6 mph65%29.89 "HgN/A
12:20 PM72 °FPassing clouds.8 mph65%29.89 "HgN/A
11:50 AM70 °FPassing clouds.7 mph69%29.89 "HgN/A
11:20 AM70 °FPassing clouds.7 mph73%29.89 "HgN/A
10:50 AM68 °FPassing clouds.6 mph73%29.89 "HgN/A
10:20 AM66 °FPassing clouds.6 mph78%29.89 "HgN/A
9:50 AM64 °FPassing clouds.3 mph78%29.89 "HgN/A
9:20 AM64 °FSunny.2 mph78%29.89 "Hg10 mi
8:50 AM61 °FSunny.3 mph88%29.89 "Hg10 mi
8:20 AM57 °FClear.2 mph100%29.89 "Hg5 mi
7:50 AM55 °FFog.2 mph94%29.89 "Hg5 mi
7:20 AM55 °FFog.2 mph94%29.89 "Hg3 mi
6:50 AM55 °FFog.5 mph94%29.86 "Hg4 mi
6:20 AM55 °FFog.3 mph94%29.86 "HgN/A
5:50 AM55 °FFog.3 mph100%29.86 "HgN/A
5:20 AM57 °FFog.2 mph94%29.89 "HgN/A
4:50 AM55 °FFog.3 mph94%29.86 "HgN/A
4:20 AM57 °FFog.5 mph94%29.86 "HgN/A
3:50 AM57 °FFog.2 mph100%29.89 "HgN/A
3:20 AM57 °FFog.3 mph100%29.89 "HgN/A
2:50 AM57 °FClear.1 mph94%29.89 "Hg10 mi
2:20 AM57 °FClear.2 mph94%29.89 "Hg10 mi
1:50 AM61 °FClear.3 mph88%29.89 "Hg10 mi
1:20 AM59 °FClear.3 mph88%29.89 "Hg10 mi
12:50 AM61 °FClear.3 mph88%29.89 "Hg10 mi
12:20 AM61 °FClear.3 mph88%29.89 "Hg10 mi
11:50 PM
Sep 18
61 °FClear.3 mph88%29.89 "Hg10 mi
11:20 PM64 °FClear.3 mph78%29.89 "Hg10 mi
10:50 PM64 °FClear.5 mph78%29.89 "Hg10 mi
10:20 PM64 °FPassing clouds.7 mph78%29.89 "HgN/A
9:50 PM66 °FPassing clouds.7 mph73%29.89 "HgN/A
9:20 PM68 °FPassing clouds.8 mph73%29.89 "HgN/A
8:50 PM68 °FPassing clouds.9 mph73%29.89 "HgN/A
8:20 PM66 °FSunny.8 mph73%29.89 "Hg10 mi
7:50 PM68 °FSunny.8 mph73%29.89 "Hg10 mi
7:20 PM68 °FSunny.7 mph69%29.86 "Hg10 mi
6:50 PM72 °FSunny.6 mph61%29.86 "Hg10 mi
6:20 PM73 °FSunny.7 mph57%29.86 "Hg10 mi
5:50 PM73 °FScattered clouds.7 mph57%29.89 "HgN/A
5:20 PM73 °FScattered clouds.6 mph57%29.86 "HgN/A
4:50 PM75 °FScattered clouds.7 mph50%29.86 "HgN/A
4:20 PM77 °FScattered clouds.10 mph47%29.86 "HgN/A
3:50 PM77 °FScattered clouds.9 mph51%29.86 "HgN/A
3:20 PM75 °FPassing clouds.8 mph54%29.86 "HgN/A
2:50 PM75 °FPassing clouds.9 mph54%29.89 "HgN/A
2:20 PM75 °FPassing clouds.10 mph54%29.89 "HgN/A
Weather by CustomWeather, © 2014

See weather overviewHow to use our weather pages